Regional Weather Roundup
Issued by NWS

Home | Current Version | Previous Version | Text Only | Print | Product List | Glossary Off
Versions: 1 2 3 4 5 6 7 8 9 10 11 12 13 14 15 16 17 18 19 20 21 22 23 24 25 26 27 28 29 30 31 32 33 34 35 36 37 38 39 40 41 42 43 44 45 46 47 48 49 50

000
ASUS43 KMPX 171910
RWRMN
WEATHER ROUNDUP FOR MINNESOTA
NATIONAL WEATHER SERVICE TWIN CITIES/CHANHASSEN MN
200 PM CDT WED SEP 17 2014


NOTE: "FAIR" INDICATES FEW OR NO CLOUDS BELOW 12,000 FEET WITH NO
SIGNIFICANT WEATHER AND/OR OBSTRUCTIONS TO VISIBILITY. N/A MEANS
CURRENT SKY AND/OR WEATHER CONDITIONS ARE NOT AVAILABLE.

MNZ060>063-068>070-172000-
   Twin Cities Metro

CITY           SKY/WX    TMP DP  RH WIND       PRES   REMARKS
TWIN CITIES    MOSUNNY   73  52  47 CALM      29.94F
ST PAUL        SUNNY     72  53  51 VRB3      29.95F
CRYSTAL        MOSUNNY   73  51  46 CALM      29.93F
BLAINE         MOSUNNY   73  55  53 CALM      29.94F
LAKEVILLE      SUNNY     72  52  49 CALM      29.94F
SOUTH ST PAUL  SUNNY     72  51  48 E5        29.94F
LAKE ELMO      FAIR      70  54  56 E3        29.96F
$$
MNZ001>005-007-008-013>017-022>024-027-028-172000-
   Northwest Minnesota

CITY           SKY/WX    TMP DP  RH WIND       PRES   REMARKS
BEMIDJI        SUNNY     65  48  52 NE5       29.98R
HALLOCK        MOSUNNY   61  46  59 NE8       30.04S
ROSEAU         MOSUNNY   54  43  66 NE10G18   30.06R
WARROAD        CLOUDY    48  43  81 NE10G17   30.08R
THIEF RVR FALL MOSUNNY   61  48  63 N12       30.01R
CROOKSTON      SUNNY     66  52  59 NE10G16   30.00R
FOSSTON        SUNNY     70  52  52 NE6       29.99R
DETROIT LAKES  SUNNY     70  45  40 NE6       29.98S
MOORHEAD       SUNNY     72  48  43 N8        29.97S
PARK RAPIDS    SUNNY     71  43  36 NW7       29.96R
MAHNOMEN       FAIR      70  47  43 N6        29.97R
$$
MNZ006-009>011-018-025>026-172000-
   North Central Minnesota

CITY           SKY/WX    TMP DP  RH WIND       PRES   REMARKS
BAUDETTE       MOSUNNY   56  43  61 NE9       30.04R
FLAG ISLAND    CLOUDY    46  37  71 NE12      30.07R
INTL FALLS     PTSUNNY   53  41  63 NE12      30.04S
WASKISH        MOSUNNY   61  48  63 CALM      30.01S
BIG FORK       MOSUNNY   57  48  72 N6        30.00S
LONGVILLE      SUNNY     70  52  52 N5        29.96S
GRAND RAPIDS   MOSUNNY   66  48  52 N7        29.97R
CRANE LAKE     MOSUNNY   54  43  66 NE3       30.04S
ORR            MOSUNNY   61  43  51 CALM      29.98R
COOK           MOSUNNY   59  46  63 NE5       30.00R
WALKER         FAIR      67  50  54 NE6       29.96S
$$
MNZ012-019>021-037-172000-
   Northeast Minnesota

CITY           SKY/WX    TMP DP  RH WIND       PRES   REMARKS
DULUTH         MOSUNNY   58  48  69 E15       29.97R
ELY            PTSUNNY   54  45  71 N8        30.01R
HIBBING        MOSUNNY   67  50  54 N9        29.97S
EVELETH        MOSUNNY   63  50  63 N9        29.98S
DULUTH HARBOR  CLOUDY    54  48  82 NE23G30   30.01R
TWO HARBORS    CLOUDY    46  43  87 NE14G20   30.00R
SILVER BAY     CLOUDY    43  43 100 NE9G20    30.02R FOG
GRAND MARAIS     N/A     45  41  86 E17       30.06R
G MARAIS ARPRT CLOUDY    41  36  81 NE8       30.04R HAZE
$$
MNZ029>031-032-039>041-046>048-054>057-064-172000-
   West Central Minnesota

CITY           SKY/WX    TMP DP  RH WIND       PRES   REMARKS
FERGUS FALLS   MOSUNNY   72  48  43 E5        29.95F
WHEATON        SUNNY     70  52  52 NE6       29.96S
MORRIS         SUNNY     73  54  49 CALM      29.93F
ALEXANDRIA     PTSUNNY   71  55  56 NE6       29.97S
ELBOW LAKE     FAIR      71  55  56 E8        29.95S
WADENA         SUNNY     70  50  49 CALM      29.96S
GLENWOOD       MOSUNNY   73  52  46 SE3       29.96S
APPLETON       MOSUNNY   73  54  49 CALM      29.93F
BENSON         MOSUNNY   75  57  53 CALM      29.94S
ORTONVILLE     SUNNY     72  52  49 NE5       29.94F
MADISON        SUNNY     73  57  56 CALM      29.94F
WILLMAR        FAIR      72  54  53 NW3       29.95S
$$
MNZ033>034-036-042>043-049>051-058-059-172000-
   Central Minnesota

CITY           SKY/WX    TMP DP  RH WIND       PRES   REMARKS
ST CLOUD       PTSUNNY   73  53  49 E3        29.94F
SAUK CENTRE    FAIR      70  55  59 N6        29.96R
PAYNESVILLE    CLOUDY    69  54  60 CALM      29.95S
AITKIN         SUNNY     73  48  40 CALM      29.94S
PINE RIVER     SUNNY     70  50  49 W3        29.99S
BRAINERD       SUNNY     69  47  45 CALM      29.96S
STAPLES        MOSUNNY   70  50  49 CALM      29.96S
LONG PRAIRIE   PTSUNNY   68  54  60 CALM      29.96S
LITTLE FALLS   PTSUNNY   70  52  52 CALM      29.96R
LITCHFIELD     SUNNY     73  57  56 E5        29.95S
BUFFALO        MOSUNNY   71  53  53 CALM      29.95F
MAPLE LAKE     MOSUNNY   72  57  59 CALM      29.95S
$$
MNZ037-044-045-052-053-172000-
   East Central Minnesota

CITY           SKY/WX    TMP DP  RH WIND       PRES   REMARKS
PRINCETON      SUNNY     73  54  49 N6        29.95S
MORA           MOSUNNY   70  52  52 NW3       29.97S
CAMBRIDGE      SUNNY     73  55  53 CALM      29.93F
RUSH CITY      SUNNY     70  52  51 CALM      29.95S
MOOSE LAKE     SUNNY     70  46  43 N5        29.92F
HINCKLEY       FAIR      70  52  52 CALM      29.95S
CLOQUET        SUNNY     70  46  43 N6        29.95S
MCGREGOR       SUNNY     70  46  43 CALM      29.95S
$$
MNZ071>073-080-081-089-090-097-098-172000-
   Southwest Minnesota

CITY           SKY/WX    TMP DP  RH WIND       PRES   REMARKS
MONTEVIDEO     SUNNY     77  57  50 CALM      29.95S
GRANITE FALLS  SUNNY     73  57  57 NE3       29.95S
CANBY          MOSUNNY   72  57  59 E3        29.95S
MARSHALL       SUNNY     72  55  56 E6        29.93F
REDWOOD FALLS  SUNNY     73  54  51 CALM      29.93F
OLIVIA         SUNNY     73  55  53 NE3       29.93F
PIPESTONE      MOSUNNY   72  57  60 SE5       29.94S
WINDOM         MOSUNNY   72  55  56 E3        29.94F
WORTHINGTON    SUNNY     72  55  56 SW6       29.95S
JACKSON        PTSUNNY   73  54  49 NE3       29.95S
TRACY          MOSUNNY   72  58  61 CALM      29.95S
SLAYTON        MOSUNNY   71  56  61 CALM      29.95F
$$
MNZ065>067-074>077-082>085-091>093-172000-
   South Central Minnesota

CITY           SKY/WX    TMP DP  RH WIND       PRES   REMARKS
MANKATO        MOSUNNY   70  52  52 S3        29.94F
NEW ULM        SUNNY     70  55  60 CALM      29.94S
ST JAMES       MOSUNNY   72  55  56 CALM      29.95S
FAIRMONT       MOSUNNY   73  50  43 SE3       29.94F
GLENCOE        SUNNY     74  52  46 S5        29.94S
FARIBAULT      SUNNY     75  46  35 CALM      29.95F
OWATONNA       SUNNY     72  52  49 CALM      29.95F
WASECA         MOSUNNY   72  46  40 CALM      29.96F
ALBERT LEA     SUNNY     72  52  49 E3        29.95F
$$
MNZ078>079-086>088-094>096-172000-
   Southeast Minnesota

CITY           SKY/WX    TMP DP  RH WIND       PRES   REMARKS
ROCHESTER      MOSUNNY   70  49  47 E3        29.98F
RED WING       SUNNY     72  52  49 CALM      29.93F
STANTON        SUNNY     72  51  47 CALM      29.93F
DODGE CENTER   SUNNY     70  52  52 CALM      29.96F
WINONA         MOSUNNY   70  52  52 SW5       29.96F
AUSTIN         SUNNY     70  52  52 CALM      29.96S
PRESTON        SUNNY     67  55  66 CALM      29.98F
$$
ABBREVIATIONS USED IN REMARKS
   TC - TEMPERATURES IN CELSIUS
  WCI - WIND CHILL INDEX
   HX - HEAT INDEX
  VSB - VISIBILITY
$$


USA.gov is the U.S. government's official web portal to all federal, state and local government web resources and services.